Weather reports worldwide

Advertisment
Ponferrada, Spain (8053): temperature & dewpoint: 28.05.2020 21:00:00 - 03.06.2020 21:00:00 (CEST)Ponferrada, Spain (8053): wind speed: 28.05.2020 21:00:00 - 03.06.2020 21:00:00 (CEST)Ponferrada, Spain (8053): wind direction: 28.05.2020 21:00:00 - 03.06.2020 21:00:00 (CEST)Ponferrada, Spain (8053): reduced air pressure: 28.05.2020 21:00:00 - 03.06.2020 21:00:00 (CEST)Ponferrada, Spain (8053): visibility: 28.05.2020 21:00:00 - 03.06.2020 21:00:00 (CEST)Ponferrada, Spain (8053): precipitation: 28.05.2020 21:00:00 - 03.06.2020 21:00:00 (CEST)
Date & Time tt [°C] td [°C] ff [km/h] ff [kn] dd ppp [hPa] vv [km] rr [mm]
03.06.2020 21:00:00 20,5 9,7 8 4 NW 1007,8 20 0,0
03.06.2020 20:00:00 20,5 13,2 8 4 N 1007,1 20 -
03.06.2020 19:00:00 20,9 14,5 11 6 WNW 1006,8 10 0,0
03.06.2020 18:00:00 24,2 12,8 13 7 W 1006,1 20 0,0
03.06.2020 17:00:00 25,1 11,3 16 9 WNW 1006,3 20 -
03.06.2020 16:00:00 26,4 11,3 18 10 WNW 1006,3 20 0,0
03.06.2020 15:00:00 25,2 14,0 13 7 W 1007,0 20 0,0
03.06.2020 14:00:00 25,1 13,9 15 8 W 1007,1 20 -
03.06.2020 13:00:00 23,7 14,4 8 4 W 1008,4 20 0,0
03.06.2020 12:00:00 21,9 14,3 5 3 WNW 1009,5 20 0,0
03.06.2020 11:00:00 19,3 14,5 4 2 NE 1010,4 20 -
03.06.2020 10:00:00 17,5 14,2 5 3 WSW 1011,4 17 0,0
03.06.2020 09:00:00 17,0 14,3 4 2 WNW 1011,6 19 0,0
03.06.2020 08:00:00 16,5 13,8 2 1 E 1011,8 20 -
03.06.2020 07:00:00 16,5 13,8 5 3 SSE 1011,8 20 0,0
03.06.2020 06:00:00 16,4 14,1 2 1 NNE 1011,9 20 0,0
03.06.2020 05:00:00 16,7 13,8 2 1 E 1012,2 20 -
03.06.2020 04:00:00 16,6 14,6 4 2 E 1012,7 20 0,0
03.06.2020 03:00:00 17,1 14,7 2 1 WSW 1012,9 20 0,0
03.06.2020 02:00:00 17,7 14,4 2 1 NNW 1013,4 20 -
03.06.2020 01:00:00 18,0 14,7 5 3 SE 1013,8 20 0,0
03.06.2020 00:00:00 18,1 14,4 2 1 WSW 1013,7 20 0,0
02.06.2020 23:00:00 19,0 15,3 2 1 ENE 1013,1 20 -
02.06.2020 22:00:00 18,9 15,2 5 3 ESE 1012,6 20 0,0
02.06.2020 21:00:00 19,7 15,3 4 2 N 1012,4 20 0,0
02.06.2020 20:00:00 21,2 16,4 2 1 ENE 1011,3 20 -
02.06.2020 19:00:00 21,9 16,0 8 4 E 1011,3 19 6,0
02.06.2020 18:00:00 27,5 14,8 11 6 W 1009,7 17 0,0
02.06.2020 17:00:00 29,1 11,6 5 3 NNE 1009,6 20 -
02.06.2020 16:00:00 28,2 11,7 8 4 W 1010,5 20 0,0
02.06.2020 15:00:00 28,4 11,9 8 4 SW 1010,9 20 0,0
02.06.2020 14:00:00 26,9 11,8 8 4 NNW 1012,0 30 -
02.06.2020 13:00:00 25,1 14,5 4 2 NW 1012,7 20 0,0
02.06.2020 12:00:00 23,0 14,3 4 2 NE 1013,9 20 0,0
02.06.2020 11:00:00 19,8 14,4 5 3 WNW 1015,0 30 -
02.06.2020 10:00:00 18,2 14,3 2 1 WSW 1015,4 20 0,0
02.06.2020 09:00:00 17,1 14,2 4 2 W 1015,3 20 0,0
02.06.2020 08:00:00 16,9 13,6 4 2 SSE 1015,1 20 -
02.06.2020 07:00:00 16,6 13,7 2 1 WNW 1015,1 20 0,0
02.06.2020 06:00:00 17,0 14,1 2 1 SSW 1014,6 20 0,0
02.06.2020 05:00:00 17,4 14,1 2 1 NW 1014,4 20 -
02.06.2020 04:00:00 17,3 13,8 2 1 ENE 1014,4 20 0,0
02.06.2020 03:00:00 18,5 14,2 2 1 E 1014,3 20 0,0
02.06.2020 02:00:00 19,5 14,3 0 0 N 1014,5 20 -
02.06.2020 01:00:00 19,9 14,5 4 2 ESE 1014,4 20 0,0
02.06.2020 00:00:00 20,5 14,4 5 3 WSW 1014,5 20 0,0
01.06.2020 23:00:00 20,9 15,7 4 2 WNW 1014,0 20 -
01.06.2020 22:00:00 21,8 15,6 4 2 W 1013,3 20 0,0
01.06.2020 21:00:00 23,1 14,9 4 2 NW 1012,4 20 0,0
01.06.2020 20:00:00 24,5 13,4 2 1 N 1011,5 20 -
01.06.2020 19:00:00 26,6 13,3 9 5 W 1010,8 20 0,0
01.06.2020 18:00:00 27,9 10,6 5 3 WNW 1010,5 20 0,0
01.06.2020 17:00:00 27,6 13,9 5 3 SW 1010,8 13 -
01.06.2020 16:00:00 28,4 11,5 5 3 SSE 1010,9 20 0,0
01.06.2020 15:00:00 27,3 11,3 5 3 WNW 1011,6 20 0,0
01.06.2020 14:00:00 26,9 10,6 8 4 WNW 1012,0 20 -
01.06.2020 13:00:00 24,8 11,0 5 3 W 1012,8 20 0,0
01.06.2020 12:00:00 23,3 12,9 4 2 SW 1013,2 20 0,0
01.06.2020 11:00:00 20,9 13,1 5 3 WSW 1013,9 20 -
01.06.2020 10:00:00 18,8 13,0 4 2 E 1014,4 20 0,0
01.06.2020 09:00:00 16,7 12,2 4 2 WNW 1014,7 20 0,0
01.06.2020 08:00:00 15,2 11,6 2 1 S 1014,8 20 -
01.06.2020 07:00:00 14,5 11,5 2 1 N 1014,8 20 0,0
01.06.2020 06:00:00 15,2 11,6 5 3 S 1013,8 20 0,0
01.06.2020 05:00:00 15,9 12,8 5 3 E 1013,2 20 -
01.06.2020 04:00:00 17,4 11,4 4 2 S 1012,6 20 0,0
01.06.2020 03:00:00 18,1 11,4 8 4 ESE 1011,9 20 0,0
01.06.2020 02:00:00 18,8 12,1 9 5 E 1011,9 20 -
01.06.2020 01:00:00 19,1 14,1 2 1 NW 1012,2 20 0,0
01.06.2020 00:00:00 19,8 13,9 2 1 SSW 1011,6 20 0,0
31.05.2020 23:00:00 20,3 13,7 4 2 ENE 1011,1 20 -
31.05.2020 22:00:00 21,7 14,1 2 1 ENE 1010,3 20 0,0
31.05.2020 21:00:00 23,2 13,9 2 1 N 1009,8 20 0,0
31.05.2020 20:00:00 24,1 13,0 4 2 SW 1008,9 19 -
31.05.2020 19:00:00 24,7 12,3 4 2 N 1008,6 20 0,0
31.05.2020 18:00:00 24,8 12,1 4 2 NNW 1009,0 20 0,0
31.05.2020 17:00:00 23,7 13,0 4 2 W 1009,1 20 -
31.05.2020 16:00:00 21,2 12,9 5 3 WSW 1011,2 20 0,0
31.05.2020 15:00:00 20,5 13,5 5 3 W 1011,5 20 0,0
31.05.2020 14:00:00 20,8 13,7 8 4 WSW 1011,4 20 -
31.05.2020 13:00:00 23,5 14,2 15 8 W 1010,6 20 0,0
31.05.2020 12:00:00 23,4 13,3 4 2 W 1009,9 20 0,0
31.05.2020 11:00:00 21,8 13,7 4 2 NW 1010,5 20 -
31.05.2020 10:00:00 19,5 12,3 4 2 W 1011,1 20 0,0
31.05.2020 09:00:00 18,1 13,0 4 2 S 1011,1 20 0,0
31.05.2020 08:00:00 17,4 13,1 2 1 NNE 1010,9 20 -
31.05.2020 07:00:00 16,8 12,7 4 2 SE 1010,8 20 0,0
31.05.2020 06:00:00 17,8 12,5 0 0 N 1010,3 20 0,0
31.05.2020 05:00:00 19,0 13,0 5 3 SSE 1010,2 20 -
31.05.2020 04:00:00 19,8 13,0 4 2 W 1009,8 20 0,0
31.05.2020 03:00:00 20,7 11,9 2 1 W 1010,2 20 0,0
31.05.2020 02:00:00 20,7 11,1 8 4 SSE 1010,7 20 -
31.05.2020 01:00:00 21,1 11,4 4 2 SE 1010,6 20 0,0
31.05.2020 00:00:00 22,3 11,7 2 1 S 1010,3 20 0,0
30.05.2020 23:00:00 23,0 11,7 2 1 E 1010,0 20 -
30.05.2020 22:00:00 25,0 11,5 2 1 SSE 1008,9 20 0,0
30.05.2020 21:00:00 26,8 10,5 5 3 ESE 1008,1 20 0,0
30.05.2020 20:00:00 28,6 8,8 4 2 W 1008,0 7 -
30.05.2020 19:00:00 29,6 8,6 8 4 W 1007,2 20 0,0
30.05.2020 18:00:00 28,6 12,9 8 4 SSE 1007,9 20 0,0
30.05.2020 17:00:00 30,3 11,8 8 4 S 1007,4 20 -
30.05.2020 16:00:00 31,8 8,7 9 5 WSW 1007,3 20 0,0
30.05.2020 15:00:00 30,6 7,7 8 4 NNE 1008,4 20 0,0
30.05.2020 14:00:00 29,0 8,1 5 3 W 1009,5 30 -
30.05.2020 13:00:00 27,0 7,9 5 3 WNW 1010,5 19 0,0
30.05.2020 12:00:00 24,3 10,2 5 3 W 1011,7 13 0,0
30.05.2020 11:00:00 21,2 11,2 5 3 W 1013,0 20 -
30.05.2020 10:00:00 19,1 11,1 5 3 WSW 1013,8 20 0,0
30.05.2020 09:00:00 17,4 11,0 2 1 W 1014,4 20 0,0
30.05.2020 08:00:00 15,7 10,9 2 1 WSW 1015,0 20 -
30.05.2020 07:00:00 15,0 11,4 2 1 NE 1014,8 20 0,0
30.05.2020 06:00:00 15,8 11,6 2 1 NE 1014,2 20 0,0
30.05.2020 05:00:00 16,7 12,4 2 1 S 1014,1 20 -
30.05.2020 04:00:00 18,0 12,7 4 2 W 1013,9 20 0,0
30.05.2020 03:00:00 19,2 12,9 2 1 SSW 1014,0 20 0,0
30.05.2020 02:00:00 21,0 13,2 2 1 S 1013,6 20 -
30.05.2020 01:00:00 21,3 13,2 4 2 SE 1013,4 20 0,0
30.05.2020 00:00:00 23,0 13,5 2 1 ESE 1012,8 20 0,0
29.05.2020 23:00:00 25,2 13,4 5 3 W 1012,2 20 -
29.05.2020 22:00:00 26,9 14,0 8 4 W 1010,9 20 0,0
29.05.2020 21:00:00 28,9 14,3 9 5 WNW 1010,0 20 0,0
29.05.2020 20:00:00 32,0 4,7 11 6 WNW 1009,1 20 -
29.05.2020 19:00:00 32,5 2,5 13 7 WNW 1009,1 20 0,0
29.05.2020 18:00:00 33,0 -0,2 11 6 NW 1009,5 20 0,0
29.05.2020 17:00:00 33,0 1,9 9 5 WSW 1009,8 20 -
29.05.2020 16:00:00 32,2 4,1 5 3 W 1010,6 20 0,0
29.05.2020 15:00:00 31,0 6,8 5 3 WNW 1011,4 20 0,0
29.05.2020 14:00:00 29,9 8,9 8 4 WSW 1012,6 6 -
29.05.2020 13:00:00 27,4 11,4 5 3 W 1013,8 20 0,0
29.05.2020 12:00:00 24,9 14,1 5 3 W 1015,1 20 0,0
29.05.2020 11:00:00 22,5 13,8 5 3 W 1016,3 20 -
29.05.2020 10:00:00 21,0 13,7 4 2 NW 1017,1 20 0,0
29.05.2020 09:00:00 19,0 13,2 2 1 E 1017,9 20 0,0
29.05.2020 08:00:00 16,5 13,0 2 1 NNE 1018,6 20 -
29.05.2020 07:00:00 15,9 12,6 2 1 ESE 1018,6 20 0,0
29.05.2020 06:00:00 16,7 12,6 2 1 SSE 1018,4 18 0,0
29.05.2020 05:00:00 17,3 12,8 2 1 NE 1018,4 20 -
29.05.2020 04:00:00 18,3 12,7 2 1 ENE 1018,2 20 0,0
29.05.2020 03:00:00 19,5 12,7 2 1 E 1018,1 20 0,0
29.05.2020 02:00:00 21,5 13,4 2 1 NW 1018,0 20 -
29.05.2020 01:00:00 22,3 12,8 4 2 S 1017,9 20 0,0
29.05.2020 00:00:00 22,9 12,8 4 2 SE 1017,8 20 0,0
28.05.2020 23:00:00 24,1 12,7 4 2 S 1017,2 20 -
28.05.2020 22:00:00 25,4 11,9 13 7 E 1016,4 20 0,0
28.05.2020 21:00:00 26,7 12,0 11 6 E 1015,8 20 0,0

tt = temperature
td = dewpoint
ff = wind speed
dd = wind direction
ppp = reduced air pressure
vv = visibility
rr = precipitation

Next stations